Location: Unspecified
(41.9000°N, 12.4830°E)
Time: 17:58:42
(UTC+02:00)

ISS - Pass Details

Date: 16 September 2017
Orbit: 401 x 407 km, 51.6° (Epoch: 25 September)

Event Time Altitude Azimuth Distance (km) Brightness Sun altitude
Exits shadow 06:02:06 - 310° (NW) 1,974 -0.7 -9.9°
Reaches altitude 10° 06:03:23 10° 315° (NW) 1,473 -1.3 -9.6°
Maximum altitude 06:06:32 41° 28° (NNE) 609 -2.6 -9.1°
Drops below altitude 10° 06:09:40 10° 100° (E) 1,466 0.3 -8.5°
Sets 06:11:49 0° 108° (ESE) 2,323 1.2 -8.1°
